Theta_e
308 307 306 304 303 302 302 302 302 302 304 304 305 305 305 306 306 309 308 312 312 314 314 314 314 315 314 314 318 317 319 319 320 327 332 331 329 327 329 325 325 325 328 329 328 330 332 333 335 333 330 329 334 340
307 306 305 304 303 302 302 302 302 301 303 304 305 305 305 306 306 308 310 308 310 311 312 313 313 312 312 313 313 313 317 317 319 321 324 323 327 328 330 333 332 336 332 334 333 331 332 331 332 328 328 330 331 341
306 305 304 304 302 302 303 302 302 301 302 303 304 304 304 305 306 306 307 307 311 308 310 310 311 313 313 313 314 313 313 315 317 317 317 321 327 329 332 332 333 333 329 336 330 331 332 331 329 330 328 329 332 333
306 305 304 303 302 303 302 301 301 301 302 303 304 304 304 304 304 305 306 306 309 311 314 310 313 312 313 313 313 313 314 315 313 314 317 318 324 322 327 328 329 329 329 330 327 327 330 333 331 330 330 329 332 333
305 304 303 302 302 302 302 301 301 300 301 303 304 304 304 304 304 305 307 309 310 312 314 314 312 313 313 312 313 313 313 313 314 315 317 320 317 319 319 320 322 328 328 328 327 324 327 327 328 330 330 329 330 335
304 303 303 303 302 302 302 302 301 301 300 302 304 304 303 303 304 306 309 311 312 310 312 309 308 309 312 317 316 314 314 316 317 317 318 315 315 318 323 322 319 319 326 324 326 326 326 327 330 329 330 329 332 334
303 303 303 302 302 302 302 301 301 301 300 300 303 303 303 303 303 305 307 311 311 308 312 313 311 311 318 320 320 320 319 319 316 317 318 319 318 318 319 322 318 318 319 323 324 327 328 329 329 328 329 329 334 335
303 303 302 302 302 302 301 301 300 300 300 300 302 303 304 304 305 306 311 311 309 308 310 315 313 313 318 319 321 320 318 316 317 319 317 317 316 319 323 319 317 318 320 320 320 324 325 327 328 330 331 334 336 338
303 302 302 302 302 301 301 300 300 299 300 302 305 308 307 307 307 311 312 312 310 311 312 315 316 314 313 319 317 319 318 321 317 319 319 317 319 319 318 318 318 319 320 321 321 322 324 327 327 332 333 335 334 338
303 302 302 302 302 300 300 300 299 300 304 310 310 310 311 313 313 312 313 312 312 312 313 313 312 311 310 311 317 318 319 321 322 320 319 320 321 319 318 316 316 317 318 319 326 325 326 325 331 332 333 333 334 335
302 302 302 302 300 300 299 299 300 301 308 308 308 309 308 309 313 313 313 313 315 316 312 314 314 317 318 321 318 317 319 320 326 324 327 325 323 326 324 326 323 319 319 320 322 324 323 328 330 332 333 333 334 333
302 302 302 300 299 299 299 299 300 300 304 303 303 304 306 310 313 317 317 316 316 321 318 317 317 317 316 316 318 320 323 324 324 323 328 329 328 325 326 325 327 323 322 325 323 322 329 330 330 329 330 331 332 331
303 303 301 299 298 298 299 300 300 300 303 307 307 309 309 311 315 318 318 322 321 321 317 316 317 319 316 319 320 324 326 326 324 327 331 329 327 326 326 326 326 325 323 327 326 325 331 330 329 329 329 333 333 333
303 302 300 299 298 299 302 302 302 303 305 309 313 311 313 315 315 318 318 317 317 317 317 316 317 318 319 323 324 325 324 324 324 325 329 329 328 327 327 327 326 329 329 327 323 325 332 331 332 332 333 333 332 332
303 300 299 299 299 302 302 303 303 304 306 310 312 314 314 313 314 314 316 317 316 318 317 318 318 319 322 324 325 325 327 329 323 326 327 327 326 326 329 328 329 328 327 324 326 327 330 333 332 333 333 333 332 331
300 299 302 303 303 304 304 303 305 305 307 309 309 313 311 312 313 314 315 314 314 317 315 317 320 323 325 325 327 323 326 331 330 326 326 324 325 325 327 328 330 327 327 326 326 326 331 334 333 333 333 332 331 332
299 301 305 304 303 304 305 305 308 308 308 312 310 308 310 311 313 313 313 313 312 315 320 318 321 323 322 326 328 326 326 322 322 323 322 324 326 327 327 328 328 331 330 327 325 331 331 330 333 330 331 331 331 330
302 305 305 304 303 307 308 306 307 310 312 309 310 309 309 312 314 313 312 310 313 314 318 320 317 322 323 323 323 320 320 320 322 322 323 326 326 327 328 329 330 329 327 327 328 330 330 330 329 328 330 331 330 330
303 304 304 303 301 303 307 309 307 309 309 308 308 308 309 311 312 311 312 311 313 315 317 316 319 320 320 319 319 319 320 322 325 324 325 325 325 326 323 325 330 329 328 328 326 326 328 329 329 329 329 329 327 327
303 304 302 301 300 306 308 308 310 309 310 309 309 309 309 312 311 312 311 312 313 315 317 319 316 320 319 319 318 318 319 321 324 325 326 325 325 324 324 325 327 328 329 329 329 327 326 328 329 330 327 327 329 328
300 301 301 300 303 303 305 306 307 309 310 310 309 310 310 311 312 312 312 313 317 316 316 315 315 316 318 318 317 317 317 319 321 323 325 326 323 325 326 327 328 329 327 325 325 323 324 328 330 330 328 328 326 325
304 305 304 303 304 307 307 307 306 306 308 308 308 309 310 312 313 313 312 313 314 314 313 313 315 316 316 316 318 319 319 319 321 323 324 323 322 324 324 326 327 326 327 329 328 327 328 331 329 328 327 328 328 326
305 305 306 306 308 308 305 309 309 310 313 312 313 315 315 319 317 316 318 317 318 316 313 315 316 316 315 317 319 322 324 324 323 321 323 325 325 327 327 328 329 327 327 328 329 329 329 330 328 325 323 323 322 321
303 305 308 309 308 305 307 311 309 312 314 315 314 316 317 317 316 318 321 319 321 320 321 322 322 319 319 321 323 321 322 322 321 322 323 325 324 325 328 329 329 330 330 327 324 326 326 324 323 322 320 318 316 316
306 302 303 302 306 310 310 310 309 309 312 313 315 314 315 316 318 321 322 324 322 318 317 317 319 321 323 323 324 324 326 324 320 321 324 325 326 328 327 326 327 327 326 324 323 320 318 319 318 318 317 315 314 313
306 305 302 309 308 309 309 312 314 314 315 316 315 318 316 317 321 322 324 322 320 317 313 314 316 318 321 324 325 325 327 325 324 323 326 327 327 326 324 323 321 323 324 322 320 318 317 316 315 315 315 315 315 315
306 306 305 304 307 309 310 310 311 314 316 318 317 315 316 320 322 322 320 318 315 314 314 314 315 316 318 322 325 328 326 327 328 328 328 328 327 327 327 325 323 326 322 320 318 317 317 317 318 318 318 317 317 317
305 305 306 307 307 308 310 310 312 313 315 315 314 317 319 320 319 318 317 315 314 314 314 315 316 318 320 322 325 327 327 326 326 325 325 325 325 325 325 326 325 322 320 319 319 319 318 318 318 318 318 317 316 314
306 305 306 308 310 311 311 311 311 312 315 314 315 315 315 314 314 314 314 314 315 315 314 315 319 321 324 326 327 328 326 325 323 322 322 321 320 323 322 323 322 321 320 318 318 318 317 317 316 316 315 315 315 315
305 304 307 310 311 312 311 312 314 314 314 314 314 314 314 314 314 314 315 315 315 317 318 318 319 322 325 325 325 325 325 325 324 323 322 319 319 323 322 321 319 317 316 317 318 318 317 317 316 316 316 316 316 316
304 305 307 310 310 310 310 313 314 315 315 315 315 316 317 315 315 316 317 316 316 319 323 324 326 325 324 325 323 322 322 324 324 324 323 321 321 323 322 321 319 315 315 316 317 318 319 320 321 321 320 319 318 317
307 306 307 311 312 314 315 315 316 316 316 315 316 316 317 319 320 320 321 320 321 324 324 326 322 322 324 324 323 322 321 320 321 321 320 319 319 319 320 319 318 317 316 316 317 319 320 321 321 321 320 319 320 319
311 310 312 314 315 316 315 314 316 317 317 318 321 320 320 322 324 323 325 325 324 325 325 325 324 323 320 319 320 320 318 318 318 318 318 317 316 317 318 319 319 319 321 320 320 319 319 319 320 321 320 320 320 318
Wind_Speed
9 8 8 9 9 10 11 12 13 14 14 14 15 15 15 15 13 13 12 8 8 3 9 12 5 1 4 2 2 5 6 4 4 5 2 3 2 3 2 3 3 4 2 4 2 4 6 12 6 1 7 8 7 6
8 7 8 8 9 10 11 12 13 13 13 13 14 15 15 14 13 11 6 14 13 5 6 27 34 34 23 23 5 4 3 2 4 2 3 2 3 3 0 2 4 2 4 2 4 3 1 1 4 4 10 7 12 6
8 7 7 9 9 10 11 12 12 12 12 12 13 14 14 13 12 11 11 15 14 3 7 4 6 13 15 17 9 4 3 6 4 2 1 3 2 0 2 3 2 2 3 1 4 3 2 6 2 4 9 12 15 13
7 8 8 8 8 10 11 11 12 12 12 12 13 13 14 14 14 14 12 16 12 5 3 6 17 27 29 22 20 22 19 17 7 2 3 3 3 3 3 4 2 4 1 2 4 7 5 2 1 3 9 14 16 17
8 8 8 7 8 9 10 11 12 13 12 13 14 13 14 16 16 18 17 10 9 4 3 8 26 19 20 18 20 20 17 7 3 2 3 4 3 1 4 1 5 5 6 4 5 6 4 7 7 4 6 9 13 11
9 8 7 7 8 9 11 12 13 14 14 14 14 15 16 15 15 10 2 4 6 6 2 4 8 8 25 19 10 7 9 6 4 4 4 4 7 5 4 4 6 7 4 6 5 3 6 6 5 6 7 5 11 13
9 8 7 8 8 9 12 13 14 15 16 16 16 17 16 13 12 4 5 2 5 14 2 4 5 5 8 6 4 3 1 4 4 3 4 6 5 5 5 14 8 8 8 7 7 4 4 5 6 4 8 11 14 15
9 8 8 8 8 10 12 14 16 17 18 18 18 18 16 14 13 9 5 5 10 5 2 3 4 5 4 3 3 3 3 2 3 4 2 4 1 3 8 11 9 9 9 8 9 10 12 5 6 7 4 3 8 1
8 8 8 8 10 12 14 16 16 18 19 18 17 13 3 1 2 4 4 3 6 2 1 2 3 4 6 3 3 3 1 3 3 3 4 5 4 5 7 8 8 9 9 11 8 8 8 11 13 9 7 5 4 4
8 8 8 8 10 13 14 14 15 17 16 10 5 2 2 1 10 5 0 1 1 1 2 2 2 4 2 2 3 2 1 3 3 4 3 3 7 15 13 9 8 10 12 9 5 6 7 7 9 9 13 10 15 11
9 8 8 8 10 11 12 12 14 15 5 5 5 2 9 8 3 1 1 1 2 2 3 4 5 4 3 4 4 3 2 2 2 4 1 3 3 2 6 7 5 11 11 10 11 9 8 8 8 6 7 9 14 9
9 9 9 9 10 11 11 10 12 8 5 10 12 11 6 2 2 2 3 2 3 3 3 3 4 4 4 1 1 3 3 1 5 4 3 2 3 12 11 11 10 7 6 5 11 12 9 10 9 8 6 7 5 11
9 8 9 10 10 9 9 10 9 8 11 2 2 3 1 2 1 3 2 0 2 2 3 2 3 2 4 2 3 3 3 3 3 3 3 2 3 9 9 8 11 10 11 12 11 11 12 9 13 4 8 7 9 4
8 8 9 11 9 6 9 7 4 4 2 2 2 4 4 3 4 4 3 3 4 4 4 3 2 2 3 3 2 3 3 1 3 3 3 3 9 12 9 7 10 10 10 7 10 11 14 15 9 4 3 15 15 9
7 7 9 10 6 5 4 3 4 3 3 3 2 4 5 5 3 4 3 1 5 3 2 3 2 1 3 3 2 3 3 1 3 4 3 6 15 13 11 11 8 8 7 5 7 6 8 10 14 13 18 19 10 4
5 4 4 1 2 4 4 4 2 2 3 3 4 3 4 3 4 3 2 3 2 2 2 0 2 2 3 2 2 3 4 4 5 8 10 11 15 14 10 12 11 6 7 5 3 4 11 11 15 23 30 27 20 16
4 2 2 1 5 5 3 2 3 4 4 4 4 4 6 6 7 4 2 3 2 2 2 1 2 3 4 3 4 2 3 6 11 11 11 12 15 15 9 10 10 5 4 4 3 7 11 21 27 21 16 27 36 35
4 3 4 3 6 2 2 5 3 3 6 5 4 5 3 5 5 4 3 3 2 1 1 3 2 2 1 3 4 4 8 8 7 7 9 13 16 14 8 10 7 6 8 8 10 7 19 16 15 12 23 24 28 20
8 5 3 1 4 3 2 4 5 3 5 4 4 4 3 4 5 4 2 4 5 4 1 2 2 3 3 4 5 8 6 3 6 8 11 17 17 12 11 6 7 8 7 6 13 9 15 18 17 16 10 9 5 4
11 8 6 4 3 2 3 4 5 3 4 4 2 4 3 4 4 3 4 3 3 2 2 3 4 4 4 6 5 6 7 4 4 8 10 9 11 15 9 8 3 9 10 12 14 14 8 11 14 18 17 8 2 1
5 8 6 6 2 6 3 3 4 3 4 3 4 2 4 3 3 3 4 3 3 4 4 4 5 6 8 12 10 9 8 7 8 4 8 8 7 10 8 13 16 15 9 5 2 3 9 7 18 20 19 21 18 12
3 5 6 6 3 4 4 8 4 5 2 4 3 3 4 3 3 3 2 2 4 5 5 4 7 9 8 8 9 13 19 16 14 14 18 7 4 5 4 6 7 4 5 8 6 3 7 15 13 17 20 18 12 11
3 6 3 6 4 3 6 4 3 3 3 3 3 3 3 2 3 3 1 3 3 3 6 6 9 17 11 19 17 14 12 10 4 5 7 6 5 11 11 15 15 6 4 12 14 12 15 22 24 25 23 21 17 14
4 2 3 3 6 4 3 3 3 3 3 2 2 3 4 2 3 1 2 2 4 5 7 8 5 4 3 5 3 4 13 11 10 12 8 1 3 6 11 13 16 16 17 19 22 20 18 21 21 23 24 19 15 17
3 5 4 4 3 3 3 3 4 2 3 3 2 4 3 2 1 2 2 3 5 5 5 6 7 6 4 3 4 10 24 10 4 2 11 8 10 9 11 17 20 15 17 21 16 19 18 19 17 16 15 20 20 19
3 4 6 5 4 4 4 2 2 1 3 3 4 2 3 2 3 4 2 0 2 3 4 5 4 5 5 4 5 10 15 7 3 4 6 14 15 9 4 4 5 10 15 18 21 18 18 20 21 22 23 24 25 24
3 5 5 4 3 3 3 2 2 2 4 3 1 3 2 3 4 2 2 3 2 7 15 18 16 7 5 9 17 17 5 19 20 18 21 17 15 11 10 8 5 13 17 20 22 23 21 21 21 22 22 21 20 21
5 4 5 5 4 4 5 3 3 3 2 1 2 1 2 3 3 2 4 5 15 20 21 22 19 18 20 22 19 12 10 20 25 27 26 21 18 17 14 18 22 21 23 23 23 22 25 25 24 20 20 20 19 22
4 4 3 6 4 4 4 5 5 3 2 2 2 3 4 3 3 5 21 21 19 16 13 12 16 15 16 17 17 8 4 17 12 9 9 4 4 12 18 20 23 24 23 25 26 25 23 23 23 24 23 23 22 21
5 5 4 4 4 5 4 3 2 3 2 3 2 3 3 7 21 22 19 17 10 10 13 15 18 15 11 7 3 0 9 17 15 14 6 5 7 17 19 22 23 24 26 23 20 21 20 19 18 18 17 16 13 12
3 4 5 5 4 4 6 3 2 2 3 4 4 4 9 6 14 21 14 15 14 10 11 11 5 5 4 4 8 7 7 13 14 17 21 19 20 22 21 21 20 21 21 19 18 18 15 13 10 8 7 8 7 8
4 6 3 4 2 1 2 1 2 2 2 2 3 3 2 2 3 3 3 6 9 7 3 11 14 10 5 12 12 21 27 24 23 22 21 20 16 15 16 15 14 15 15 14 13 11 6 3 3 6 4 6 6 6
3 4 3 2 1 2 1 2 2 3 1 3 3 4 4 3 5 3 6 11 15 13 17 16 10 10 21 24 23 26 26 22 20 18 15 15 15 14 12 12 8 14 13 15 18 14 12 10 8 3 4 3 7 11
Wind_Direction
291 294 296 309 318 324 329 334 339 340 341 344 346 348 349 351 351 346 310 32 354 276 287 270 272 252 315 267 264 314 347 347 346 23 357 322 34 287 341 258 225 194 183 223 177 160 236 353 349 161 321 305 204 165
286 283 292 301 312 319 327 332 334 334 335 339 344 345 345 348 350 344 298 320 328 239 257 292 283 279 254 251 246 247 243 4 257 39 6 348 346 322 100 280 349 149 183 224 182 193 169 69 144 281 12 16 318 292
276 269 285 298 309 320 326 331 333 332 330 332 335 342 342 341 345 339 308 315 322 291 289 276 259 301 293 264 269 186 256 211 261 145 228 232 264 75 297 268 16 264 192 236 360 89 183 269 183 356 346 347 325 339
260 260 277 294 307 319 324 328 328 329 328 328 331 334 336 333 329 326 310 304 302 276 287 282 315 303 300 285 270 226 234 257 262 335 238 234 183 191 243 247 187 212 62 196 266 291 302 212 168 282 326 335 346 348
250 257 273 287 308 316 319 321 324 325 324 322 324 326 328 328 325 318 306 284 278 233 278 293 301 290 309 293 275 229 210 221 219 219 220 231 217 213 247 278 245 184 200 173 230 241 189 261 303 289 282 334 333 350
243 254 268 287 307 313 314 318 320 322 321 318 317 320 322 325 328 335 313 54 97 20 308 310 306 297 308 321 285 229 214 222 212 189 216 221 213 175 248 236 234 215 205 192 234 223 206 263 268 291 282 338 324 318
239 250 268 289 303 311 315 318 319 318 318 316 314 313 315 314 308 257 246 255 264 329 301 293 296 267 307 359 342 331 228 214 181 214 213 229 237 157 237 249 234 259 254 234 233 182 273 220 260 223 291 330 345 286
239 253 272 287 301 311 317 317 318 316 315 315 313 310 307 298 285 279 282 311 257 195 236 279 277 319 335 354 356 309 285 319 270 217 196 203 196 175 251 233 223 224 234 247 243 211 235 201 213 265 266 113 270 311
236 252 273 290 303 311 316 315 317 318 317 317 313 315 286 205 229 252 260 310 184 135 263 284 291 287 341 315 255 315 48 303 286 236 219 144 197 226 232 198 205 215 216 235 239 226 220 211 233 208 265 29 292 251
236 252 272 290 305 313 316 318 323 324 324 326 325 277 266 231 297 285 114 88 100 226 240 257 262 269 310 292 284 321 249 253 298 261 345 224 245 250 247 240 220 219 221 220 231 267 267 227 208 202 190 195 214 223
233 252 271 291 307 312 314 325 333 335 355 357 350 291 305 323 253 213 274 178 167 239 206 236 223 239 252 235 249 222 277 269 284 270 254 261 273 10 320 317 309 254 218 213 220 231 240 199 193 199 201 173 167 199
228 252 274 292 304 303 311 325 331 335 331 319 297 295 285 277 225 254 246 171 206 263 193 222 245 216 277 263 183 266 237 251 251 315 263 247 299 329 327 315 315 288 270 258 237 227 179 182 192 174 177 145 177 162
231 252 273 293 298 304 309 318 317 312 322 304 232 261 109 261 291 221 261 229 267 283 246 253 306 278 316 268 261 280 271 243 319 234 276 240 233 282 294 292 300 279 257 255 216 194 172 174 205 182 140 131 58 31
231 252 278 291 295 295 309 315 327 339 291 248 248 271 203 237 232 201 218 227 252 230 260 234 252 241 287 293 262 268 260 316 299 293 283 288 307 314 297 298 288 280 286 225 180 189 168 179 188 171 164 110 88 43
234 264 288 298 274 284 299 297 325 318 271 262 233 242 227 237 282 265 226 15 273 243 233 302 250 206 270 283 265 294 268 216 246 263 266 313 312 310 319 327 304 322 324 176 181 172 134 130 135 137 133 124 132 80
229 282 281 204 339 312 289 279 279 223 251 246 236 282 283 326 312 309 305 285 288 281 336 47 302 296 278 250 273 287 283 344 327 319 324 318 313 321 328 324 321 304 311 265 213 176 135 158 157 145 141 157 186 186
197 196 219 310 309 293 266 225 239 220 245 235 240 220 248 277 263 250 234 264 255 18 303 329 317 258 300 320 303 342 345 297 306 307 313 319 318 323 327 312 325 305 351 14 41 40 124 145 155 159 165 179 169 164
178 197 235 294 325 314 236 213 248 247 246 244 256 254 239 255 258 269 251 248 109 237 352 254 170 8 345 312 290 286 303 306 295 292 308 319 327 332 347 326 331 5 6 30 34 78 129 149 159 177 183 189 185 200
186 213 230 288 333 294 249 228 212 258 250 250 258 272 252 256 251 232 220 245 231 194 172 297 239 208 224 221 231 276 289 275 305 318 310 311 313 327 341 12 342 333 35 46 62 58 84 98 101 92 129 160 179 223
206 230 252 262 286 276 265 256 219 240 267 255 292 275 242 242 253 240 250 245 179 156 202 225 221 220 199 250 207 241 269 247 280 310 308 306 297 311 335 3 28 52 88 75 69 70 64 90 100 84 70 45 204 71
213 259 224 208 236 224 266 263 254 235 262 255 271 297 265 275 262 252 258 226 180 205 222 223 239 252 232 258 255 237 248 252 256 255 272 303 319 341 357 15 37 69 79 62 66 93 187 189 135 112 108 80 61 72
206 185 182 195 256 232 235 233 224 283 281 250 305 208 252 268 261 243 219 173 222 219 197 207 235 247 263 266 265 242 247 254 256 255 268 275 324 356 348 9 64 41 45 68 84 90 27 46 80 95 89 78 95 106
161 183 223 206 235 243 256 195 221 251 253 250 311 291 273 270 252 9 284 224 247 261 216 214 237 237 236 262 271 263 258 235 264 287 308 303 356 19 41 49 58 86 70 51 69 85 96 98 86 79 81 85 96 98
195 235 229 213 192 251 263 233 218 246 264 260 264 275 287 263 321 334 255 302 347 358 9 357 334 315 315 290 272 290 284 264 264 288 314 129 72 28 58 64 77 92 98 97 94 94 93 95 106 113 110 91 88 93
165 259 135 261 272 258 263 242 210 242 258 247 257 273 275 347 309 268 256 8 355 358 346 342 348 356 357 307 318 320 323 269 227 323 317 154 129 77 65 68 71 72 102 97 83 88 89 98 103 110 109 113 109 98
218 226 179 217 211 204 231 268 359 184 262 239 241 329 18 346 272 247 141 75 311 298 330 333 330 322 340 4 341 305 303 334 216 112 73 120 130 122 115 87 90 79 100 105 107 94 94 98 101 102 96 98 101 98
237 248 229 224 242 288 299 291 274 247 244 244 294 355 338 263 253 210 186 220 217 317 317 311 300 281 284 306 298 325 29 123 111 113 109 104 104 112 123 132 122 121 123 122 118 110 107 104 101 103 105 110 112 115
237 259 211 236 210 231 227 228 255 241 240 127 81 262 250 243 261 230 221 279 329 319 306 301 293 289 290 294 306 328 87 101 107 103 95 86 82 82 98 112 119 124 121 121 123 124 125 122 122 121 117 111 112 126
236 247 199 249 238 225 220 210 219 262 143 145 194 240 246 239 248 281 290 296 300 291 276 280 288 297 300 292 285 287 183 145 119 102 97 94 71 92 108 119 114 110 112 111 113 117 120 120 123 122 123 123 122 124
237 201 242 231 206 224 230 205 210 209 204 203 213 285 281 271 284 286 283 278 273 266 264 268 273 270 262 252 268 12 153 165 152 140 133 133 132 130 121 121 118 119 123 120 116 123 125 125 128 128 130 133 137 140
231 180 209 225 240 249 255 214 239 226 227 221 214 241 269 308 304 299 276 257 239 250 262 259 234 149 105 19 134 107 89 132 122 123 129 129 133 132 133 136 138 139 144 141 143 143 145 144 147 148 150 146 150 161
196 200 218 235 252 139 65 32 280 264 284 287 245 221 263 256 266 276 267 144 168 224 271 148 126 172 109 111 117 115 119 120 115 118 127 131 128 131 135 139 146 154 163 171 175 172 173 219 198 168 184 188 180 165
173 186 202 172 134 129 26 345 332 306 218 263 262 202 196 215 261 233 162 154 135 134 114 127 127 121 124 111 120 120 124 125 121 125 128 138 148 162 167 172 184 210 194 145 123 126 109 104 52 326 201 162 153 155